This is the latest recevied weather packets stored in our database for station/object LU8FJH-13. If no packets are shown the sender has not sent any weather packets the latest 1 day(s).
| Time | Temp. | Humidity | Pressure | Rain* | Wind** | Luminosity | Snow |
|---|---|---|---|---|---|---|---|
| 1777994700 | 23.33° C | 81% | 1011.4 hPa | 0 mm | 0 m/s | - | - |
| 1777994160 | 23.33° C | 82% | 1011.7 hPa | 0 mm | 0.45 m/s, 342° | - | - |
| 1777993620 | 23.33° C | 83% | 1011.7 hPa | 0 mm | 0.89 m/s, 347° | - | - |
| 1777993080 | 22.78° C | 83% | 1011.8 hPa | 0 mm | 0.45 m/s, 7° | - | - |
| 1777992540 | 22.78° C | 84% | 1012 hPa | 0 mm | 0.89 m/s, 339° | - | - |
| 1777992000 | 22.22° C | 83% | 1012.2 hPa | 0 mm | 0.45 m/s, 4° | - | - |
| 1777991460 | 22.22° C | 83% | 1012.3 hPa | 0 mm | 0 m/s | - | - |
| 1777990920 | 22.22° C | 82% | 1012.3 hPa | 0 mm | 0 m/s | - | - |
| 1777990380 | 22.22° C | 82% | 1012.4 hPa | 0 mm | 0 m/s | - | - |
| 1777989840 | 22.22° C | 81% | 1012.4 hPa | 0 mm | 0.45 m/s, 334° | - | - |
| 1777989300 | 22.22° C | 79% | 1012.4 hPa | 0 mm | 0 m/s | - | - |
| 1777988760 | 22.22° C | 79% | 1012.6 hPa | 0 mm | 0 m/s | - | - |
| 1777988220 | 22.22° C | 79% | 1012.4 hPa | 0 mm | 0.89 m/s, 355° | - | - |
| 1777987680 | 22.22° C | 80% | 1012.4 hPa | 0 mm | 0 m/s | - | - |
| 1777987140 | 22.22° C | 80% | 1012.4 hPa | 0 mm | 0.45 m/s, 232° | - | - |
| 1777986600 | 21.67° C | 82% | 1012.4 hPa | 0 mm | 0 m/s | - | - |
| 1777986060 | 21.67° C | 83% | 1012.5 hPa | 0 mm | 0.45 m/s, 314° | - | - |
| 1777985520 | 21.67° C | 83% | 1012.5 hPa | 0 mm | 0 m/s | - | - |
| 1777984980 | 21.67° C | 85% | 1012.4 hPa | 0 mm | 0 m/s | - | - |
| 1777984440 | 21.11° C | 86% | 1012.4 hPa | 0 mm | 0.45 m/s, 303° | - | - |
| 1777983900 | 20.56° C | 87% | 1012.1 hPa | 0 mm | 0 m/s | - | - |
| 1777983360 | 20.56° C | 88% | 1012.3 hPa | 0 mm | 0.45 m/s, 23° | - | - |
| 1777982820 | 20.56° C | 89% | 1012 hPa | 0 mm | 0.45 m/s, 45° | - | - |
| 1777981740 | 20.56° C | 90% | 1012 hPa | 0 mm | 0 m/s | - | - |
| 1777981200 | 20° C | 91% | 1012.1 hPa | 0 mm | 0 m/s | - | - |
* Rain latest hour (hover to see other rain measurements)
** Current wind speed in m/s (hover to see current wind gust speed)